owner,sensor,date,latitude,longitude,vertical_datum,mass_concentration_of_oxygen_in_sea_water,qcFlag 
DISL,ioos:station:DISL:KATA:1,2012-10-01T00:00:00Z,30.2583,-88.2131,4.272,5.96,1111122 
DISL,ioos:station:DISL:KATA:1,2012-10-01T00:30:00Z,30.2583,-88.2131,4.277,5.95,1111122 
DISL,ioos:station:DISL:KATA:1,2012-10-01T01:00:00Z,30.2583,-88.2131,4.299,5.71,1111122 
DISL,ioos:station:DISL:KATA:1,2012-10-01T01:30:00Z,30.2583,-88.2131,4.292,5.77,1111122 
DISL,ioos:station:DISL:KATA:1,2012-10-01T02:00:00Z,30.2583,-88.2131,4.301,5.81,1111122 
DISL,ioos:station:DISL:KATA:1,2012-10-01T02:30:00Z,30.2583,-88.2131,4.296,5.78,1111122 
DISL,ioos:station:DISL:KATA:1,2012-10-01T03:00:00Z,30.2583,-88.2131,4.314,5.84,1111122 
DISL,ioos:station:DISL:KATA:1,2012-10-01T03:30:00Z,30.2583,-88.2131,4.335,5.8,1111122 
DISL,ioos:station:DISL:KATA:1,2012-10-01T04:00:00Z,30.2583,-88.2131,4.422,5.85,1111122 
DISL,ioos:station:DISL:KATA:1,2012-10-01T04:30:00Z,30.2583,-88.2131,4.452,5.88,1111122 
DISL,ioos:station:DISL:KATA:1,2012-10-01T05:00:00Z,30.2583,-88.2131,4.435,5.85,1111122 
DISL,ioos:station:DISL:KATA:1,2012-10-01T05:30:00Z,30.2583,-88.2131,4.437,5.78,1111122 
DISL,ioos:station:DISL:KATA:1,2012-10-01T06:00:00Z,30.2583,-88.2131,4.39,5.74,1111122 
DISL,ioos:station:DISL:KATA:1,2012-10-01T06:30:00Z,30.2583,-88.2131,4.299,5.68,1111122 
DISL,ioos:station:DISL:KATA:1,2012-10-01T07:00:00Z,30.2583,-88.2131,4.247,5.74,1111122 
DISL,ioos:station:DISL:KATA:1,2012-10-01T07:30:00Z,30.2583,-88.2131,4.216,5.8,1111122 
DISL,ioos:station:DISL:KATA:1,2012-10-01T08:00:00Z,30.2583,-88.2131,4.22,5.72,1111122 
DISL,ioos:station:DISL:KATA:1,2012-10-01T08:30:00Z,30.2583,-88.2131,4.22,5.7,1111122 
DISL,ioos:station:DISL:KATA:1,2012-10-01T09:00:00Z,30.2583,-88.2131,4.193,5.91,1111122 
DISL,ioos:station:DISL:KATA:1,2012-10-01T09:30:00Z,30.2583,-88.2131,4.221,5.8,1111122 
DISL,ioos:station:DISL:KATA:1,2012-10-01T10:00:00Z,30.2583,-88.2131,4.232,5.82,1111122 
DISL,ioos:station:DISL:KATA:1,2012-10-01T10:30:00Z,30.2583,-88.2131,4.173,5.73,1111122 
DISL,ioos:station:DISL:KATA:1,2012-10-01T11:00:00Z,30.2583,-88.2131,4.189,5.78,1111122 
DISL,ioos:station:DISL:KATA:1,2012-10-01T11:30:00Z,30.2583,-88.2131,4.085,5.83,1111122 
DISL,ioos:station:DISL:KATA:1,2012-10-01T12:00:00Z,30.2583,-88.2131,4.072,5.94,1111122 
DISL,ioos:station:DISL:KATA:1,2012-10-01T12:30:00Z,30.2583,-88.2131,4.093,5.79,1111122 
DISL,ioos:station:DISL:KATA:1,2012-10-01T13:00:00Z,30.2583,-88.2131,4.068,5.77,1111122 
DISL,ioos:station:DISL:KATA:1,2012-10-01T13:30:00Z,30.2583,-88.2131,4.053,5.82,1111122 
DISL,ioos:station:DISL:KATA:1,2012-10-01T14:00:00Z,30.2583,-88.2131,4.032,5.73,1111122 
DISL,ioos:station:DISL:KATA:1,2012-10-01T14:30:00Z,30.2583,-88.2131,3.985,5.74,1111122 
DISL,ioos:station:DISL:KATA:1,2012-10-01T15:00:00Z,30.2583,-88.2131,4.053,5.93,1111122 
DISL,ioos:station:DISL:KATA:1,2012-10-01T15:30:00Z,30.2583,-88.2131,4.063,6.08,1111122 
DISL,ioos:station:DISL:KATA:1,2012-10-01T16:00:00Z,30.2583,-88.2131,4.094,6.08,1111122 
DISL,ioos:station:DISL:KATA:1,2012-10-01T16:30:00Z,30.2583,-88.2131,4.169,6.08,1111122 
DISL,ioos:station:DISL:KATA:1,2012-10-01T17:00:00Z,30.2583,-88.2131,4.119,6.06,1111122 
DISL,ioos:station:DISL:KATA:1,2012-10-01T17:30:00Z,30.2583,-88.2131,4.054,5.95,1111122 
DISL,ioos:station:DISL:KATA:1,2012-10-01T18:00:00Z,30.2583,-88.2131,4.141,6.41,1111122 
DISL,ioos:station:DISL:KATA:1,2012-10-01T18:30:00Z,30.2583,-88.2131,4.163,6.36,1111122 
DISL,ioos:station:DISL:KATA:1,2012-10-01T19:00:00Z,30.2583,-88.2131,4.169,6.33,1111122 
DISL,ioos:station:DISL:KATA:1,2012-10-01T19:30:00Z,30.2583,-88.2131,4.15,6.31,1111122 
DISL,ioos:station:DISL:KATA:1,2012-10-01T20:00:00Z,30.2583,-88.2131,4.136,6.23,1111122 
DISL,ioos:station:DISL:KATA:1,2012-10-01T20:30:00Z,30.2583,-88.2131,4.15,6.47,1111122 
DISL,ioos:station:DISL:KATA:1,2012-10-01T21:00:00Z,30.2583,-88.2131,4.143,6.55,1111122 
DISL,ioos:station:DISL:KATA:1,2012-10-01T21:30:00Z,30.2583,-88.2131,4.152,6.53,1111122 
DISL,ioos:station:DISL:KATA:1,2012-10-01T22:00:00Z,30.2583,-88.2131,4.183,6.41,1111122 
DISL,ioos:station:DISL:KATA:1,2012-10-01T22:30:00Z,30.2583,-88.2131,4.188,6.49,1111122 
DISL,ioos:station:DISL:KATA:1,2012-10-01T23:00:00Z,30.2583,-88.2131,4.175,6.52,1111122 
DISL,ioos:station:DISL:KATA:1,2012-10-01T23:30:00Z,30.2583,-88.2131,4.176,6.52,1111122 
DISL,ioos:station:DISL:KATA:1,2012-10-02T00:00:00Z,30.2583,-88.2131,4.19,6.48,1111122 
DISL,ioos:station:DISL:KATA:1,2012-10-02T00:30:00Z,30.2583,-88.2131,4.197,6.42,1111122 
DISL,ioos:station:DISL:KATA:1,2012-10-02T01:00:00Z,30.2583,-88.2131,4.177,6.43,1111122 
DISL,ioos:station:DISL:KATA:1,2012-10-02T01:30:00Z,30.2583,-88.2131,4.19,6.36,1111122 
DISL,ioos:station:DISL:KATA:1,2012-10-02T02:00:00Z,30.2583,-88.2131,4.208,6.35,1111122 
DISL,ioos:station:DISL:KATA:1,2012-10-02T02:30:00Z,30.2583,-88.2131,4.21,6.12,1111122 
DISL,ioos:station:DISL:KATA:1,2012-10-02T03:00:00Z,30.2583,-88.2131,4.233,6.08,1111122 
DISL,ioos:station:DISL:KATA:1,2012-10-02T03:30:00Z,30.2583,-88.2131,4.23,6.19,1111122 
DISL,ioos:station:DISL:KATA:1,2012-10-02T04:00:00Z,30.2583,-88.2131,4.227,6.31,1111122 
DISL,ioos:station:DISL:KATA:1,2012-10-02T04:30:00Z,30.2583,-88.2131,4.249,6.34,1111122 
DISL,ioos:station:DISL:KATA:1,2012-10-02T05:00:00Z,30.2583,-88.2131,4.235,6.21,1111122 
DISL,ioos:station:DISL:KATA:1,2012-10-02T05:30:00Z,30.2583,-88.2131,4.233,6.19,1111122 
DISL,ioos:station:DISL:KATA:1,2012-10-02T06:00:00Z,30.2583,-88.2131,4.226,6.19,1111122 
DISL,ioos:station:DISL:KATA:1,2012-10-02T06:30:00Z,30.2583,-88.2131,4.205,6.03,1111122 
DISL,ioos:station:DISL:KATA:1,2012-10-02T07:00:00Z,30.2583,-88.2131,4.193,6.04,1111122 
DISL,ioos:station:DISL:KATA:1,2012-10-02T07:30:00Z,30.2583,-88.2131,4.173,6.09,1111122 
DISL,ioos:station:DISL:KATA:1,2012-10-02T08:00:00Z,30.2583,-88.2131,4.14,5.82,1111122 
DISL,ioos:station:DISL:KATA:1,2012-10-02T08:30:00Z,30.2583,-88.2131,4.097,5.9,1111122 
DISL,ioos:station:DISL:KATA:1,2012-10-02T09:00:00Z,30.2583,-88.2131,4.075,5.83,1111122 
DISL,ioos:station:DISL:KATA:1,2012-10-02T09:30:00Z,30.2583,-88.2131,4.051,5.64,1111122 
DISL,ioos:station:DISL:KATA:1,2012-10-02T10:00:00Z,30.2583,-88.2131,4.013,5.91,1111122 
DISL,ioos:station:DISL:KATA:1,2012-10-02T10:30:00Z,30.2583,-88.2131,3.99,6.07,1111122 
DISL,ioos:station:DISL:KATA:1,2012-10-02T11:00:00Z,30.2583,-88.2131,3.958,6.03,1111122 
DISL,ioos:station:DISL:KATA:1,2012-10-02T11:30:00Z,30.2583,-88.2131,3.937,6.07,1111122 
DISL,ioos:station:DISL:KATA:1,2012-10-02T12:00:00Z,30.2583,-88.2131,3.927,6.03,1111122 
DISL,ioos:station:DISL:KATA:1,2012-10-02T12:30:00Z,30.2583,-88.2131,3.911,6.03,1111122 
DISL,ioos:station:DISL:KATA:1,2012-10-02T13:00:00Z,30.2583,-88.2131,3.891,5.98,1111122 
DISL,ioos:station:DISL:KATA:1,2012-10-02T13:30:00Z,30.2583,-88.2131,3.871,6.01,1111122 
DISL,ioos:station:DISL:KATA:1,2012-10-02T14:00:00Z,30.2583,-88.2131,3.861,5.93,1111122 
DISL,ioos:station:DISL:KATA:1,2012-10-02T14:30:00Z,30.2583,-88.2131,3.853,5.84,1111122 
DISL,ioos:station:DISL:KATA:1,2012-10-02T15:00:00Z,30.2583,-88.2131,3.862,5.75,1111122 
DISL,ioos:station:DISL:KATA:1,2012-10-02T15:30:00Z,30.2583,-88.2131,3.868,5.86,1111122 
DISL,ioos:station:DISL:KATA:1,2012-10-02T16:00:00Z,30.2583,-88.2131,3.859,5.77,1111122 
DISL,ioos:station:DISL:KATA:1,2012-10-02T16:30:00Z,30.2583,-88.2131,3.863,5.7,1111122 
DISL,ioos:station:DISL:KATA:1,2012-10-02T17:00:00Z,30.2583,-88.2131,3.868,5.81,1111122 
DISL,ioos:station:DISL:KATA:1,2012-10-02T17:30:00Z,30.2583,-88.2131,3.891,5.63,1111122 
DISL,ioos:station:DISL:KATA:1,2012-10-02T18:00:00Z,30.2583,-88.2131,3.915,5.63,1111122 
DISL,ioos:station:DISL:KATA:1,2012-10-02T18:30:00Z,30.2583,-88.2131,3.949,6.05,1111122 
DISL,ioos:station:DISL:KATA:1,2012-10-02T19:00:00Z,30.2583,-88.2131,3.984,6.22,1111122 
DISL,ioos:station:DISL:KATA:1,2012-10-02T19:30:00Z,30.2583,-88.2131,3.995,6.23,1111122 
DISL,ioos:station:DISL:KATA:1,2012-10-02T20:00:00Z,30.2583,-88.2131,4.001,6.3,1111122 
DISL,ioos:station:DISL:KATA:1,2012-10-02T20:30:00Z,30.2583,-88.2131,4.014,6.14,1111122 
DISL,ioos:station:DISL:KATA:1,2012-10-02T21:00:00Z,30.2583,-88.2131,4.021,6.03,1111122 
DISL,ioos:station:DISL:KATA:1,2012-10-02T21:30:00Z,30.2583,-88.2131,4.005,5.89,1111122 
DISL,ioos:station:DISL:KATA:1,2012-10-02T22:00:00Z,30.2583,-88.2131,4.026,6.39,1111122 
DISL,ioos:station:DISL:KATA:1,2012-10-02T22:30:00Z,30.2583,-88.2131,4.044,6.24,1111122 
DISL,ioos:station:DISL:KATA:1,2012-10-02T23:00:00Z,30.2583,-88.2131,4.057,6.98,1111122 
DISL,ioos:station:DISL:KATA:1,2012-10-02T23:30:00Z,30.2583,-88.2131,4.081,7.12,1111122 
DISL,ioos:station:DISL:KATA:1,2012-10-03T00:00:00Z,30.2583,-88.2131,4.106,7.11,1111122 
DISL,ioos:station:DISL:KATA:1,2012-10-03T00:30:00Z,30.2583,-88.2131,4.131,6.43,1111122 
DISL,ioos:station:DISL:KATA:1,2012-10-03T01:00:00Z,30.2583,-88.2131,4.153,6.24,1111122 
DISL,ioos:station:DISL:KATA:1,2012-10-03T01:30:00Z,30.2583,-88.2131,4.171,6.19,1111122 
DISL,ioos:station:DISL:KATA:1,2012-10-03T02:00:00Z,30.2583,-88.2131,4.203,6.51,1111122 
DISL,ioos:station:DISL:KATA:1,2012-10-03T02:30:00Z,30.2583,-88.2131,4.212,5.97,1111122 
DISL,ioos:station:DISL:KATA:1,2012-10-03T03:00:00Z,30.2583,-88.2131,4.239,5.47,1111122 
DISL,ioos:station:DISL:KATA:1,2012-10-03T03:30:00Z,30.2583,-88.2131,4.252,6.23,1111122 
DISL,ioos:station:DISL:KATA:1,2012-10-03T04:00:00Z,30.2583,-88.2131,4.253,5.09,1111122 
DISL,ioos:station:DISL:KATA:1,2012-10-03T04:30:00Z,30.2583,-88.2131,4.262,4.5,1111122 
DISL,ioos:station:DISL:KATA:1,2012-10-03T05:00:00Z,30.2583,-88.2131,4.244,4.91,1111122 
DISL,ioos:station:DISL:KATA:1,2012-10-03T05:30:00Z,30.2583,-88.2131,4.228,4.74,1111122 
DISL,ioos:station:DISL:KATA:1,2012-10-03T06:00:00Z,30.2583,-88.2131,4.209,4.79,1111122 
DISL,ioos:station:DISL:KATA:1,2012-10-03T06:30:00Z,30.2583,-88.2131,4.188,4.95,1111122 
DISL,ioos:station:DISL:KATA:1,2012-10-03T07:00:00Z,30.2583,-88.2131,4.164,5.57,1111122 
DISL,ioos:station:DISL:KATA:1,2012-10-03T07:30:00Z,30.2583,-88.2131,4.14,5.2,1111122 
DISL,ioos:station:DISL:KATA:1,2012-10-03T08:00:00Z,30.2583,-88.2131,4.115,5.31,1111122 
DISL,ioos:station:DISL:KATA:1,2012-10-03T08:30:00Z,30.2583,-88.2131,4.079,5.31,1111122 
DISL,ioos:station:DISL:KATA:1,2012-10-03T09:00:00Z,30.2583,-88.2131,4.051,5.71,1111122 
DISL,ioos:station:DISL:KATA:1,2012-10-03T09:30:00Z,30.2583,-88.2131,4.027,7.37,1111122 
DISL,ioos:station:DISL:KATA:1,2012-10-03T10:00:00Z,30.2583,-88.2131,3.981,7.33,1111122 
DISL,ioos:station:DISL:KATA:1,2012-10-03T10:30:00Z,30.2583,-88.2131,3.937,6.73,1111122 
DISL,ioos:station:DISL:KATA:1,2012-10-03T11:00:00Z,30.2583,-88.2131,3.895,6.94,1111122 
DISL,ioos:station:DISL:KATA:1,2012-10-03T11:30:00Z,30.2583,-88.2131,3.855,7.09,1111122 
DISL,ioos:station:DISL:KATA:1,2012-10-03T12:00:00Z,30.2583,-88.2131,3.833,7.36,1111122 
DISL,ioos:station:DISL:KATA:1,2012-10-03T12:30:00Z,30.2583,-88.2131,3.815,7.7,1111122 
DISL,ioos:station:DISL:KATA:1,2012-10-03T13:00:00Z,30.2583,-88.2131,3.8,7.13,1111122 
DISL,ioos:station:DISL:KATA:1,2012-10-03T13:30:00Z,30.2583,-88.2131,3.786,7.2,1111122 
DISL,ioos:station:DISL:KATA:1,2012-10-03T14:00:00Z,30.2583,-88.2131,3.787,5.96,1111122 
DISL,ioos:station:DISL:KATA:1,2012-10-03T14:30:00Z,30.2583,-88.2131,3.801,5.33,1111122 
DISL,ioos:station:DISL:KATA:1,2012-10-03T15:00:00Z,30.2583,-88.2131,3.818,6.13,1111122 
DISL,ioos:station:DISL:KATA:1,2012-10-03T15:30:00Z,30.2583,-88.2131,3.831,5.81,1111122 
DISL,ioos:station:DISL:KATA:1,2012-10-03T16:00:00Z,30.2583,-88.2131,3.837,5.59,1111122 
DISL,ioos:station:DISL:KATA:1,2012-10-03T16:30:00Z,30.2583,-88.2131,3.837,4.62,1111122 
DISL,ioos:station:DISL:KATA:1,2012-10-03T17:00:00Z,30.2583,-88.2131,3.843,3.82,1111122 
DISL,ioos:station:DISL:KATA:1,2012-10-03T17:30:00Z,30.2583,-88.2131,3.86,3.91,1111122 
DISL,ioos:station:DISL:KATA:1,2012-10-03T18:00:00Z,30.2583,-88.2131,3.874,3.84,1111122 
DISL,ioos:station:DISL:KATA:1,2012-10-03T18:30:00Z,30.2583,-88.2131,3.888,3.58,1111122 
DISL,ioos:station:DISL:KATA:1,2012-10-03T19:00:00Z,30.2583,-88.2131,3.911,3.54,1111122 
DISL,ioos:station:DISL:KATA:1,2012-10-03T19:30:00Z,30.2583,-88.2131,3.937,3.7,1111122 
DISL,ioos:station:DISL:KATA:1,2012-10-03T20:00:00Z,30.2583,-88.2131,3.939,3.7,1111122 
DISL,ioos:station:DISL:KATA:1,2012-10-03T20:30:00Z,30.2583,-88.2131,3.957,3.84,1111122 
DISL,ioos:station:DISL:KATA:1,2012-10-03T21:00:00Z,30.2583,-88.2131,3.974,3.93,1111122 
DISL,ioos:station:DISL:KATA:1,2012-10-03T21:30:00Z,30.2583,-88.2131,3.986,3.77,1111122 
DISL,ioos:station:DISL:KATA:1,2012-10-03T22:00:00Z,30.2583,-88.2131,3.996,3.63,1111122 
DISL,ioos:station:DISL:KATA:1,2012-10-03T22:30:00Z,30.2583,-88.2131,4.009,3.85,1111122 
DISL,ioos:station:DISL:KATA:1,2012-10-03T23:00:00Z,30.2583,-88.2131,4.026,3.8,1111122 
DISL,ioos:station:DISL:KATA:1,2012-10-03T23:30:00Z,30.2583,-88.2131,4.045,3.77,1111122 
DISL,ioos:station:DISL:KATA:1,2012-10-04T00:00:00Z,30.2583,-88.2131,4.079,3.68,1111122 
DISL,ioos:station:DISL:KATA:1,2012-10-04T00:30:00Z,30.2583,-88.2131,4.113,3.74,1111122 
DISL,ioos:station:DISL:KATA:1,2012-10-04T01:00:00Z,30.2583,-88.2131,4.125,3.71,1111122 
DISL,ioos:station:DISL:KATA:1,2012-10-04T01:30:00Z,30.2583,-88.2131,4.158,3.65,1111122 
DISL,ioos:station:DISL:KATA:1,2012-10-04T02:00:00Z,30.2583,-88.2131,4.184,3.65,1111122 
DISL,ioos:station:DISL:KATA:1,2012-10-04T02:30:00Z,30.2583,-88.2131,4.202,3.6,1111122 
DISL,ioos:station:DISL:KATA:1,2012-10-04T03:00:00Z,30.2583,-88.2131,4.224,3.58,1111122 
DISL,ioos:station:DISL:KATA:1,2012-10-04T03:30:00Z,30.2583,-88.2131,4.254,3.68,1111122 
DISL,ioos:station:DISL:KATA:1,2012-10-04T04:00:00Z,30.2583,-88.2131,4.281,3.66,1111122 
DISL,ioos:station:DISL:KATA:1,2012-10-04T04:30:00Z,30.2583,-88.2131,4.294,3.64,1111122 
DISL,ioos:station:DISL:KATA:1,2012-10-04T05:00:00Z,30.2583,-88.2131,4.315,3.54,1111122 
DISL,ioos:station:DISL:KATA:1,2012-10-04T05:30:00Z,30.2583,-88.2131,4.309,3.39,1111122 
DISL,ioos:station:DISL:KATA:1,2012-10-04T06:00:00Z,30.2583,-88.2131,4.296,3.41,1111122 
DISL,ioos:station:DISL:KATA:1,2012-10-04T06:30:00Z,30.2583,-88.2131,4.263,3.35,1111122 
DISL,ioos:station:DISL:KATA:1,2012-10-04T07:00:00Z,30.2583,-88.2131,4.228,3.34,1111122 
DISL,ioos:station:DISL:KATA:1,2012-10-04T07:30:00Z,30.2583,-88.2131,4.194,2.95,1111122 
DISL,ioos:station:DISL:KATA:1,2012-10-04T08:00:00Z,30.2583,-88.2131,4.176,3.18,1111122 
DISL,ioos:station:DISL:KATA:1,2012-10-04T08:30:00Z,30.2583,-88.2131,4.155,3.03,1111122 
DISL,ioos:station:DISL:KATA:1,2012-10-04T09:00:00Z,30.2583,-88.2131,4.117,3.0,1111122 
DISL,ioos:station:DISL:KATA:1,2012-10-04T09:30:00Z,30.2583,-88.2131,4.085,3.38,1111122 
DISL,ioos:station:DISL:KATA:1,2012-10-04T10:00:00Z,30.2583,-88.2131,4.039,3.67,1111122 
DISL,ioos:station:DISL:KATA:1,2012-10-04T10:30:00Z,30.2583,-88.2131,3.991,3.55,1111122 
DISL,ioos:station:DISL:KATA:1,2012-10-04T11:00:00Z,30.2583,-88.2131,3.954,3.88,1111122 
DISL,ioos:station:DISL:KATA:1,2012-10-04T11:30:00Z,30.2583,-88.2131,3.908,4.68,1111122 
DISL,ioos:station:DISL:KATA:1,2012-10-04T12:00:00Z,30.2583,-88.2131,3.868,5.44,1111122 
DISL,ioos:station:DISL:KATA:1,2012-10-04T12:30:00Z,30.2583,-88.2131,3.838,5.89,1111122 
DISL,ioos:station:DISL:KATA:1,2012-10-04T13:00:00Z,30.2583,-88.2131,3.824,4.82,1111122 
DISL,ioos:station:DISL:KATA:1,2012-10-04T13:30:00Z,30.2583,-88.2131,3.807,4.92,1111122 
DISL,ioos:station:DISL:KATA:1,2012-10-04T14:00:00Z,30.2583,-88.2131,3.795,4.73,1111122 
DISL,ioos:station:DISL:KATA:1,2012-10-04T14:30:00Z,30.2583,-88.2131,3.787,4.6,1111122 
DISL,ioos:station:DISL:KATA:1,2012-10-04T15:00:00Z,30.2583,-88.2131,3.797,5.12,1111122 
DISL,ioos:station:DISL:KATA:1,2012-10-04T15:30:00Z,30.2583,-88.2131,3.795,5.31,1111122 
DISL,ioos:station:DISL:KATA:1,2012-10-04T16:00:00Z,30.2583,-88.2131,3.793,4.99,1111122 
DISL,ioos:station:DISL:KATA:1,2012-10-04T16:30:00Z,30.2583,-88.2131,3.803,5.16,1111122 
DISL,ioos:station:DISL:KATA:1,2012-10-04T17:00:00Z,30.2583,-88.2131,3.814,5.22,1111122 
DISL,ioos:station:DISL:KATA:1,2012-10-04T17:30:00Z,30.2583,-88.2131,3.826,5.01,1111122 
DISL,ioos:station:DISL:KATA:1,2012-10-04T18:00:00Z,30.2583,-88.2131,3.839,4.75,1111122 
DISL,ioos:station:DISL:KATA:1,2012-10-04T18:30:00Z,30.2583,-88.2131,3.845,4.48,1111122 
DISL,ioos:station:DISL:KATA:1,2012-10-04T19:00:00Z,30.2583,-88.2131,3.853,4.33,1111122 
DISL,ioos:station:DISL:KATA:1,2012-10-04T19:30:00Z,30.2583,-88.2131,3.861,4.26,1111122 
DISL,ioos:station:DISL:KATA:1,2012-10-04T20:00:00Z,30.2583,-88.2131,3.876,4.33,1111122 
DISL,ioos:station:DISL:KATA:1,2012-10-04T20:30:00Z,30.2583,-88.2131,3.88,4.5,1111122 
DISL,ioos:station:DISL:KATA:1,2012-10-04T21:00:00Z,30.2583,-88.2131,3.887,4.78,1111122 
DISL,ioos:station:DISL:KATA:1,2012-10-04T21:30:00Z,30.2583,-88.2131,3.894,4.98,1111122 
DISL,ioos:station:DISL:KATA:1,2012-10-04T22:00:00Z,30.2583,-88.2131,3.908,5.17,1111122 
DISL,ioos:station:DISL:KATA:1,2012-10-04T22:30:00Z,30.2583,-88.2131,3.923,5.26,1111122 
DISL,ioos:station:DISL:KATA:1,2012-10-04T23:00:00Z,30.2583,-88.2131,3.953,5.21,1111122 
DISL,ioos:station:DISL:KATA:1,2012-10-04T23:30:00Z,30.2583,-88.2131,3.987,5.16,1111122 
DISL,ioos:station:DISL:KATA:1,2012-10-05T00:00:00Z,30.2583,-88.2131,4.017,5.22,1111122 
DISL,ioos:station:DISL:KATA:1,2012-10-05T00:30:00Z,30.2583,-88.2131,4.047,5.06,1111122 
DISL,ioos:station:DISL:KATA:1,2012-10-05T01:00:00Z,30.2583,-88.2131,4.067,5.14,1111122 
DISL,ioos:station:DISL:KATA:1,2012-10-05T01:30:00Z,30.2583,-88.2131,4.093,5.6,1111122 
DISL,ioos:station:DISL:KATA:1,2012-10-05T02:00:00Z,30.2583,-88.2131,4.103,5.67,1111122 
DISL,ioos:station:DISL:KATA:1,2012-10-05T02:30:00Z,30.2583,-88.2131,4.128,5.78,1111122 
DISL,ioos:station:DISL:KATA:1,2012-10-05T03:00:00Z,30.2583,-88.2131,4.159,5.15,1111122 
DISL,ioos:station:DISL:KATA:1,2012-10-05T03:30:00Z,30.2583,-88.2131,4.174,4.86,1111122 
DISL,ioos:station:DISL:KATA:1,2012-10-05T04:00:00Z,30.2583,-88.2131,4.202,4.83,1111122 
DISL,ioos:station:DISL:KATA:1,2012-10-05T04:30:00Z,30.2583,-88.2131,4.212,4.74,1111122 
DISL,ioos:station:DISL:KATA:1,2012-10-05T05:00:00Z,30.2583,-88.2131,4.221,4.95,1111122 
DISL,ioos:station:DISL:KATA:1,2012-10-05T05:30:00Z,30.2583,-88.2131,4.223,5.03,1111122 
DISL,ioos:station:DISL:KATA:1,2012-10-05T06:00:00Z,30.2583,-88.2131,4.215,5.23,1111122 
DISL,ioos:station:DISL:KATA:1,2012-10-05T06:30:00Z,30.2583,-88.2131,4.218,5.11,1111122 
DISL,ioos:station:DISL:KATA:1,2012-10-05T07:00:00Z,30.2583,-88.2131,4.2,4.81,1111122 
DISL,ioos:station:DISL:KATA:1,2012-10-05T07:30:00Z,30.2583,-88.2131,4.177,4.7,1111122 
DISL,ioos:station:DISL:KATA:1,2012-10-05T08:00:00Z,30.2583,-88.2131,4.166,4.53,1111122 
DISL,ioos:station:DISL:KATA:1,2012-10-05T08:30:00Z,30.2583,-88.2131,4.138,4.12,1111122 
DISL,ioos:station:DISL:KATA:1,2012-10-05T09:00:00Z,30.2583,-88.2131,4.108,4.04,1111122 
DISL,ioos:station:DISL:KATA:1,2012-10-05T09:30:00Z,30.2583,-88.2131,4.084,3.67,1111122 
DISL,ioos:station:DISL:KATA:1,2012-10-05T10:00:00Z,30.2583,-88.2131,4.058,4.19,1111122 
DISL,ioos:station:DISL:KATA:1,2012-10-05T10:30:00Z,30.2583,-88.2131,4.025,4.33,1111122 
DISL,ioos:station:DISL:KATA:1,2012-10-05T11:00:00Z,30.2583,-88.2131,3.993,4.24,1111122 
DISL,ioos:station:DISL:KATA:1,2012-10-05T11:30:00Z,30.2583,-88.2131,3.962,3.95,1111122 
DISL,ioos:station:DISL:KATA:1,2012-10-05T12:00:00Z,30.2583,-88.2131,3.93,4.35,1111122 
DISL,ioos:station:DISL:KATA:1,2012-10-05T12:30:00Z,30.2583,-88.2131,3.901,4.15,1111122 
DISL,ioos:station:DISL:KATA:1,2012-10-05T13:00:00Z,30.2583,-88.2131,3.885,3.75,1111122 
DISL,ioos:station:DISL:KATA:1,2012-10-05T13:30:00Z,30.2583,-88.2131,3.854,4.22,1111122 
DISL,ioos:station:DISL:KATA:1,2012-10-05T14:00:00Z,30.2583,-88.2131,3.841,4.31,1111122 
DISL,ioos:station:DISL:KATA:1,2012-10-05T14:30:00Z,30.2583,-88.2131,3.83,4.32,1111122 
DISL,ioos:station:DISL:KATA:1,2012-10-05T15:00:00Z,30.2583,-88.2131,3.818,4.21,1111122 
DISL,ioos:station:DISL:KATA:1,2012-10-05T15:30:00Z,30.2583,-88.2131,3.815,4.34,1111122 
DISL,ioos:station:DISL:KATA:1,2012-10-05T16:00:00Z,30.2583,-88.2131,3.817,3.77,1111122 
DISL,ioos:station:DISL:KATA:1,2012-10-05T16:30:00Z,30.2583,-88.2131,3.82,3.5,1111122 
DISL,ioos:station:DISL:KATA:1,2012-10-05T17:00:00Z,30.2583,-88.2131,3.82,3.01,1111122 
DISL,ioos:station:DISL:KATA:1,2012-10-05T17:30:00Z,30.2583,-88.2131,3.822,2.55,1111122 
DISL,ioos:station:DISL:KATA:1,2012-10-05T18:00:00Z,30.2583,-88.2131,3.832,2.38,1111122 
DISL,ioos:station:DISL:KATA:1,2012-10-05T18:30:00Z,30.2583,-88.2131,3.84,2.3,1111122 
DISL,ioos:station:DISL:KATA:1,2012-10-05T19:00:00Z,30.2583,-88.2131,3.846,2.41,1111122 
DISL,ioos:station:DISL:KATA:1,2012-10-05T19:30:00Z,30.2583,-88.2131,3.868,2.51,1111122 
DISL,ioos:station:DISL:KATA:1,2012-10-05T20:00:00Z,30.2583,-88.2131,3.887,2.65,1111122 
DISL,ioos:station:DISL:KATA:1,2012-10-05T20:30:00Z,30.2583,-88.2131,3.904,2.75,1111122 
DISL,ioos:station:DISL:KATA:1,2012-10-05T21:00:00Z,30.2583,-88.2131,3.933,2.8,1111122 
DISL,ioos:station:DISL:KATA:1,2012-10-05T21:30:00Z,30.2583,-88.2131,3.963,2.91,1111122 
DISL,ioos:station:DISL:KATA:1,2012-10-05T22:00:00Z,30.2583,-88.2131,3.986,3.0,1111122 
DISL,ioos:station:DISL:KATA:1,2012-10-05T22:30:00Z,30.2583,-88.2131,4.007,3.12,1111122 
DISL,ioos:station:DISL:KATA:1,2012-10-05T23:00:00Z,30.2583,-88.2131,4.034,3.45,1111122 
DISL,ioos:station:DISL:KATA:1,2012-10-05T23:30:00Z,30.2583,-88.2131,4.057,3.45,1111122 
DISL,ioos:station:DISL:KATA:1,2012-10-06T00:00:00Z,30.2583,-88.2131,4.071,3.46,1111122 
DISL,ioos:station:DISL:KATA:1,2012-10-06T00:30:00Z,30.2583,-88.2131,4.096,3.5,1111122 
DISL,ioos:station:DISL:KATA:1,2012-10-06T01:00:00Z,30.2583,-88.2131,4.112,3.72,1111122 
DISL,ioos:station:DISL:KATA:1,2012-10-06T01:30:00Z,30.2583,-88.2131,4.142,4.1,1111122 
DISL,ioos:station:DISL:KATA:1,2012-10-06T02:00:00Z,30.2583,-88.2131,4.169,4.03,1111122 
DISL,ioos:station:DISL:KATA:1,2012-10-06T02:30:00Z,30.2583,-88.2131,4.201,4.07,1111122 
DISL,ioos:station:DISL:KATA:1,2012-10-06T03:00:00Z,30.2583,-88.2131,4.212,3.96,1111122 
DISL,ioos:station:DISL:KATA:1,2012-10-06T03:30:00Z,30.2583,-88.2131,4.24,4.04,1111122 
DISL,ioos:station:DISL:KATA:1,2012-10-06T04:00:00Z,30.2583,-88.2131,4.256,4.01,1111122 
DISL,ioos:station:DISL:KATA:1,2012-10-06T04:30:00Z,30.2583,-88.2131,4.27,3.95,1111122 
DISL,ioos:station:DISL:KATA:1,2012-10-06T05:00:00Z,30.2583,-88.2131,4.277,4.03,1111122 
DISL,ioos:station:DISL:KATA:1,2012-10-06T05:30:00Z,30.2583,-88.2131,4.275,4.04,1111122 
DISL,ioos:station:DISL:KATA:1,2012-10-06T06:00:00Z,30.2583,-88.2131,4.273,4.06,1111122 
DISL,ioos:station:DISL:KATA:1,2012-10-06T06:30:00Z,30.2583,-88.2131,4.267,4.29,1111122 
DISL,ioos:station:DISL:KATA:1,2012-10-06T07:00:00Z,30.2583,-88.2131,4.246,4.09,1111122 
DISL,ioos:station:DISL:KATA:1,2012-10-06T07:30:00Z,30.2583,-88.2131,4.221,3.66,1111122 
DISL,ioos:station:DISL:KATA:1,2012-10-06T08:00:00Z,30.2583,-88.2131,4.21,3.39,1111122 
DISL,ioos:station:DISL:KATA:1,2012-10-06T08:30:00Z,30.2583,-88.2131,4.188,3.65,1111122 
DISL,ioos:station:DISL:KATA:1,2012-10-06T09:00:00Z,30.2583,-88.2131,4.171,3.67,1111122 
DISL,ioos:station:DISL:KATA:1,2012-10-06T09:30:00Z,30.2583,-88.2131,4.152,3.59,1111122 
DISL,ioos:station:DISL:KATA:1,2012-10-06T10:00:00Z,30.2583,-88.2131,4.135,3.47,1111122 
DISL,ioos:station:DISL:KATA:1,2012-10-06T10:30:00Z,30.2583,-88.2131,4.107,3.61,1111122 
DISL,ioos:station:DISL:KATA:1,2012-10-06T11:00:00Z,30.2583,-88.2131,4.077,3.9,1111122 
DISL,ioos:station:DISL:KATA:1,2012-10-06T11:30:00Z,30.2583,-88.2131,4.038,3.29,1111122 
DISL,ioos:station:DISL:KATA:1,2012-10-06T12:00:00Z,30.2583,-88.2131,4.005,3.54,1111122 
DISL,ioos:station:DISL:KATA:1,2012-10-06T12:30:00Z,30.2583,-88.2131,3.968,3.49,1111122 
DISL,ioos:station:DISL:KATA:1,2012-10-06T13:00:00Z,30.2583,-88.2131,3.93,3.44,1111122 
DISL,ioos:station:DISL:KATA:1,2012-10-06T13:30:00Z,30.2583,-88.2131,3.894,3.44,1111122 
DISL,ioos:station:DISL:KATA:1,2012-10-06T14:00:00Z,30.2583,-88.2131,3.857,3.55,1111122 
DISL,ioos:station:DISL:KATA:1,2012-10-06T14:30:00Z,30.2583,-88.2131,3.824,3.66,1111122 
DISL,ioos:station:DISL:KATA:1,2012-10-06T15:00:00Z,30.2583,-88.2131,3.798,3.76,1111122 
DISL,ioos:station:DISL:KATA:1,2012-10-06T15:30:00Z,30.2583,-88.2131,3.784,3.29,1111122 